カタログに戻る

BREEZE-M DEB

運用中HEO
NORAD 38646·DEBRIS·🇷🇺 Russia

打ち上げ Mar 14, 2008 から Baikonur Cosmodrome

Loading…

次のパス (今後24時間)

TLE

最新Source: Space-Track

元期: Sep 14, 2026, 11:39 UTC

1 38646U 08011CV  26257.48592453  .00001033  00000-0  46769-1 0  9999
2 38646  49.3231  19.7685 6370128 212.1841  88.2096  3.05980220151967

AllMySatでBREEZE-M DEBをリアルタイム追跡

Download on the App Store